Regional Weather Roundup
Issued by NWS

Home | Current Version | Previous Version | Text Only | Print | Product List | Glossary Off
Versions: 1 2 3 4 5 6 7 8 9 10 11 12 13 14 15 16 17 18 19 20 21 22 23 24 25 26 27 28 29 30 31 32 33 34 35 36 37 38 39 40 41 42 43 44 45 46 47 48 49 50

000
ASUS43 KLSX 232107
RWRMO

WEATHER SUMMARY FOR MISSOURI
NATIONAL WEATHER SERVICE SPRINGFIELD MO
400 PM CDT WED JUL 23 2014

NOTE: "FAIR" INDICATES FEW OR NO CLOUDS BELOW 12,000 FEET WITH NO
       SIGNIFICANT WEATHER AND/OR OBSTRUCTIONS TO VISIBILITY.
       CURRENT SKY AND/OR WEATHER CONDITIONS ARE NOT AVAILABLE FOR
       CHILLICOTHE AND FARMINGTON.

MOZ001>031-035>038-043-044-053-054-232200-
...NORTHERN AND WESTERN MISSOURI...

CITY           SKY/WX    TMP DP  RH WIND       PRES   REMARKS
KANSAS CTY INT PTSUNNY   85  65  51 N9        30.13F
KANSAS C DTWN  SUNNY     89  64  43 N14       30.10F HX  90
LEE`S SUMMIT   SUNNY     86  64  47 NE6G18    30.12F
ST JOSEPH      MOSUNNY   86  67  52 N13       30.14F
CHILLICOTHE      N/A     86  61  42 NE10      30.13F
KIRKSVILLE     SUNNY     83  62  49 NE14      30.13F

$$
MOZ066>068-077>081-088>096-101>105-232200-
...SOUTHWEST MISSOURI...

CITY           SKY/WX    TMP DP  RH WIND       PRES   REMARKS
SPRINGFIELD    MOSUNNY   92  71  50 N20       30.04F HX  98
JOPLIN         PTSUNNY   86  72  62 N14G21    30.05F HX  92

$$
MOZ032>034-039>042-045>050-055>058-069>072-232200-
...CENTRAL MISSOURI...

CITY           SKY/WX    TMP DP  RH WIND       PRES   REMARKS
COLUMBIA       MOSUNNY   85  66  53 N15       30.08F
JEFFERSON CITY MOSUNNY   86  66  51 N12G18    30.05F
ROLLA          MOSUNNY   87  66  49 N15G23    30.05S
SEDALIA        SUNNY     87  66  49 N14       30.09F
WHITEMAN AFB   MOSUNNY   86  59  39 N14       30.08F
OSAGE BEACH    SUNNY     90  66  45 N9G16     30.04S HX  92

$$
MOZ051-052-059>065-232200-
...EAST CENTRAL MISSOURI...

CITY           SKY/WX    TMP DP  RH WIND       PRES   REMARKS
ST LOUIS INTL  MOSUNNY   84  68  58 N9        30.07S
SPIRIT OF STL  PTSUNNY   85  68  56 NE9G17    30.05F
ST CHARLES     PTSUNNY   83  66  56 NE14      30.06F

$$
MOZ072>076-082>087-097>100-106>115-232200-
...SOUTH CENTRAL AND SOUTHEAST MISSOURI...

CITY           SKY/WX    TMP DP  RH WIND       PRES   REMARKS
CAPE GIRARDEAU CLOUDY    73  67  81 W10       29.99S
FARMINGTON     CLOUDY    82  73  74 S6        30.04F
POPLAR BLUFF   CLOUDY    71  65  81 W12       30.02S
WEST PLAINS    RAIN      72  68  87 SE16G31   30.07R FOG

$$


USA.gov is the U.S. government's official web portal to all federal, state and local government web resources and services.